Flag for Poland Weather past 2 weeks in Rzeszów, Poland

Now
48 °F

Light rain. Mostly cloudy.


Feels Like: 43 °F
Forecast: 47 / 62 °F
Wind: 13 mph from Northwest

Location: Rzeszow-Jasionka

Current Time: May 27, 2015 at 2:38:35 PM

Latest Report: May 27, 2015 at 2:00 PM


Visibility: N/A

Pressure: 29.95 "Hg

Humidity: 87%

Dew point: 45 °F

Location of RzeszówLocation

Historic Weather in Rzeszów — Graph

°F

Rzeszów temperature yesterday

Maximum temperature yesterday: 66 °F (at 2:00 PM)
Minimum temperature yesterday: 55 °F (at 12:30 AM)
Average temperature yesterday: 60 °F

Past Weeks' High & Low Weather Summary

 TemperatureHumidityPressure
High77 °F (May 19, 2:00 PM)100% (May 14, 6:30 PM)30.24 "Hg (May 14, 6:30 PM)
Low39 °F (May 16, 5:00 AM)28% (May 18, 5:00 PM)29.68 "Hg (May 26, 11:00 PM)
Average56 °F77%29.97 "Hg
* Reported May 12 1:00 PM — May 27 1:30 PM, Rzeszów, Weather by CustomWeather, © 2015

Note: Actual official high and low records may vary slightly from our data, if they occured in-between our weather recording intervals... More about our weather records

Advertising

Rzeszów weather history for previous 24 hours

 ConditionsComfort  
Time TempWeatherWind HumidityBarometerVisibility
1:30 PM
Wed, May 27
48 °FMostly cloudy.13 mph87%29.95 "HgN/A
1:00 PM46 °FLight rain. Cloudy.15 mph93%29.92 "HgN/A
12:30 PM46 °FLight rain. Cloudy.13 mph93%29.92 "HgN/A
12:00 PM46 °FLight rain. Cloudy.15 mph93%29.92 "HgN/A
11:30 AM46 °FLight rain. Cloudy.14 mph93%29.92 "HgN/A
11:00 AM45 °FLight rain. Cloudy.14 mph93%29.92 "HgN/A
10:30 AM45 °FLight rain. Cloudy.14 mph93%29.92 "HgN/A
10:00 AM45 °FLight rain. Cloudy.14 mph93%29.89 "HgN/A
9:30 AM45 °FLight rain. Cloudy.15 mph93%29.89 "HgN/A
9:00 AM45 °FLight rain. Cloudy.12 mph93%29.89 "HgN/A
8:30 AM45 °FLight rain. More clouds than sun.16 mph93%29.89 "HgN/A
8:00 AM45 °FLight rain. Cloudy.16 mph93%29.86 "HgN/A
7:30 AM45 °FRain. Cloudy.16 mph93%29.86 "Hg4 mi
7:00 AM45 °FLight rain. Cloudy.14 mph93%29.86 "Hg5 mi
6:30 AM45 °FLight rain. Cloudy.14 mph93%29.86 "Hg4 mi
6:00 AM45 °FLight rain. Cloudy.15 mph93%29.83 "HgN/A
5:30 AM45 °FLight rain. Overcast.16 mph93%29.83 "HgN/A
5:00 AM45 °FLight rain. Mostly cloudy.17 mph93%29.80 "HgN/A
4:30 AM46 °FLight rain. Mostly cloudy.16 mph93%29.80 "HgN/A
4:00 AM46 °FSprinkles. Partly cloudy.16 mph93%29.77 "HgN/A
3:30 AM48 °FSprinkles. Partly cloudy.15 mph87%29.77 "HgN/A
3:00 AM48 °FSprinkles. Partly cloudy.18 mph94%29.77 "HgN/A
2:30 AM50 °FSprinkles. Partly cloudy.15 mph94%29.74 "HgN/A
2:00 AM50 °FSprinkles. Partly cloudy.17 mph94%29.74 "HgN/A
1:30 AM52 °FSprinkles. Partly cloudy.18 mph94%29.71 "HgN/A
1:00 AM52 °FSprinkles. Partly cloudy.17 mph94%29.71 "HgN/A
12:30 AM54 °FSprinkles. Partly cloudy.20 mph94%29.71 "HgN/A
12:00 AM55 °FSprinkles. Partly cloudy.20 mph94%29.71 "HgN/A
11:30 PM
Tue, May 26
57 °FSprinkles. Partly cloudy.18 mph94%29.68 "Hg5 mi
11:00 PM59 °FSprinkles. Fog.14 mph94%29.68 "Hg2 mi
10:30 PM59 °FSprinkles. Partly cloudy.8 mph94%29.71 "Hg3 mi
10:00 PM59 °FSprinkles. Partly cloudy.9 mph100%29.71 "Hg3 mi
9:30 PM59 °FSprinkles. Partly cloudy.8 mph94%29.74 "Hg4 mi
9:00 PM59 °FSprinkles. Broken clouds.8 mph100%29.71 "Hg4 mi
8:30 PM59 °FSprinkles. Broken clouds.6 mph94%29.71 "Hg4 mi
8:00 PM61 °FSprinkles. Broken clouds.6 mph94%29.74 "Hg4 mi
7:30 PM61 °FSprinkles. Broken clouds.8 mph94%29.74 "Hg4 mi
7:00 PM63 °FSprinkles. Broken clouds.5 mph88%29.74 "Hg4 mi
6:30 PM63 °FBroken clouds.6 mph88%29.74 "HgN/A
6:00 PM63 °FSprinkles. Broken clouds.8 mph88%29.71 "HgN/A
5:30 PM64 °FSprinkles. Partly sunny.9 mph78%29.74 "HgN/A
5:00 PM64 °FScattered clouds.10 mph83%29.74 "HgN/A
4:30 PM64 °FBroken clouds.9 mph78%29.74 "HgN/A
4:00 PM64 °FBroken clouds.10 mph78%29.74 "HgN/A
3:30 PM64 °FPartly sunny.9 mph78%29.74 "HgN/A
3:00 PM66 °FPartly sunny.6 mph73%29.74 "HgN/A
2:30 PM66 °FPartly sunny.6 mph73%29.74 "HgN/A
2:00 PM66 °FPartly sunny.6 mph73%29.74 "HgN/A
Weather by CustomWeather, © 2015

See weather overviewHow to use our weather pages